Year,Month,Day,Hour,Minute,Value (Times are PST for temperature in C)
2015,07,03,00,00,21.70
2015,07,03,00,01,21.70
2015,07,03,00,02,21.70
2015,07,03,00,03,21.70
2015,07,03,00,04,21.70
2015,07,03,00,05,21.70
2015,07,03,00,06,21.70
2015,07,03,00,07,21.70
2015,07,03,00,08,21.70
2015,07,03,00,09,21.70
2015,07,03,00,10,21.70
2015,07,03,00,11,21.70
2015,07,03,00,12,21.70
2015,07,03,00,13,21.70
2015,07,03,00,14,21.70
2015,07,03,00,15,21.70
2015,07,03,00,16,21.70
2015,07,03,00,17,21.70
2015,07,03,00,18,21.70
2015,07,03,00,19,21.60
2015,07,03,00,20,21.60
2015,07,03,00,21,21.60
2015,07,03,00,22,21.60
2015,07,03,00,23,21.60
2015,07,03,00,24,21.60
2015,07,03,00,25,21.60
2015,07,03,00,26,21.60
2015,07,03,00,27,21.60
2015,07,03,00,28,21.50
2015,07,03,00,29,21.50
2015,07,03,00,30,21.50
2015,07,03,00,31,21.50
2015,07,03,00,32,21.40
2015,07,03,00,33,21.40
2015,07,03,00,34,21.40
2015,07,03,00,35,21.40
2015,07,03,00,36,21.40
2015,07,03,00,37,21.40
2015,07,03,00,38,21.40
2015,07,03,00,39,21.30
2015,07,03,00,40,21.30
2015,07,03,00,41,21.30
2015,07,03,00,42,21.30
2015,07,03,00,43,21.20
2015,07,03,00,44,21.20
2015,07,03,00,45,21.20
2015,07,03,00,46,21.20
2015,07,03,00,47,21.20
2015,07,03,00,48,21.20
2015,07,03,00,49,21.20
2015,07,03,00,50,21.20
2015,07,03,00,51,21.20
2015,07,03,00,52,21.10
2015,07,03,00,53,21.10
2015,07,03,00,54,21.10
2015,07,03,00,55,21.00
2015,07,03,00,56,21.00
2015,07,03,00,57,21.00
2015,07,03,00,58,20.90
2015,07,03,00,59,20.90
2015,07,03,01,00,20.90
2015,07,03,01,01,20.80
2015,07,03,01,02,20.80
2015,07,03,01,03,20.80
2015,07,03,01,04,20.70
2015,07,03,01,05,20.70
2015,07,03,01,06,20.70
2015,07,03,01,07,20.70
2015,07,03,01,08,20.70
2015,07,03,01,09,20.60
2015,07,03,01,10,20.60
2015,07,03,01,11,20.60
2015,07,03,01,12,20.60
2015,07,03,01,13,20.50
2015,07,03,01,14,20.50
2015,07,03,01,15,20.50
2015,07,03,01,16,20.40
2015,07,03,01,17,20.40
2015,07,03,01,18,20.40
2015,07,03,01,19,20.40
2015,07,03,01,20,20.30
2015,07,03,01,21,20.30
2015,07,03,01,22,20.30
2015,07,03,01,23,20.30
2015,07,03,01,24,20.20
2015,07,03,01,25,20.20
2015,07,03,01,26,20.20
2015,07,03,01,27,20.20
2015,07,03,01,28,20.10
2015,07,03,01,29,20.10
2015,07,03,01,30,20.10
2015,07,03,01,31,20.10
2015,07,03,01,32,20.00
2015,07,03,01,33,20.00
2015,07,03,01,34,20.00
2015,07,03,01,35,19.90
2015,07,03,01,36,19.90
2015,07,03,01,37,19.90
2015,07,03,01,38,19.90
2015,07,03,01,39,19.80
2015,07,03,01,40,19.80
2015,07,03,01,41,19.80
2015,07,03,01,42,19.80
2015,07,03,01,43,19.70
2015,07,03,01,44,19.70
2015,07,03,01,45,19.70
2015,07,03,01,46,19.70
2015,07,03,01,47,19.70
2015,07,03,01,48,19.60
2015,07,03,01,49,19.60
2015,07,03,01,50,19.60
2015,07,03,01,51,19.60
2015,07,03,01,52,19.60
2015,07,03,01,53,19.60
2015,07,03,01,54,19.60
2015,07,03,01,55,19.60
2015,07,03,01,56,19.50
2015,07,03,01,57,19.50
2015,07,03,01,58,19.50
2015,07,03,01,59,19.50
2015,07,03,02,00,19.50
2015,07,03,02,01,19.50
2015,07,03,02,02,19.50
2015,07,03,02,03,19.50
2015,07,03,02,04,19.50
2015,07,03,02,05,19.50
2015,07,03,02,06,19.50
2015,07,03,02,07,19.50
2015,07,03,02,08,19.50
2015,07,03,02,09,19.50
2015,07,03,02,10,19.50
2015,07,03,02,11,19.50
2015,07,03,02,12,19.40
2015,07,03,02,13,19.40
2015,07,03,02,14,19.40
2015,07,03,02,15,19.40
2015,07,03,02,16,19.40
2015,07,03,02,17,19.40
2015,07,03,02,18,19.40
2015,07,03,02,19,19.40
2015,07,03,02,20,19.40
2015,07,03,02,21,19.40
2015,07,03,02,22,19.30
2015,07,03,02,23,19.30
2015,07,03,02,24,19.30
2015,07,03,02,25,19.30
2015,07,03,02,26,19.30
2015,07,03,02,27,19.30
2015,07,03,02,28,19.30
2015,07,03,02,29,19.30
2015,07,03,02,30,19.30
2015,07,03,02,31,19.30
2015,07,03,02,32,19.30
2015,07,03,02,33,19.30
2015,07,03,02,34,19.30
2015,07,03,02,35,19.30
2015,07,03,02,36,19.30
2015,07,03,02,37,19.30
2015,07,03,02,38,19.20
2015,07,03,02,39,19.20
2015,07,03,02,40,19.20
2015,07,03,02,41,19.20
2015,07,03,02,42,19.20
2015,07,03,02,43,19.10
2015,07,03,02,44,19.10
2015,07,03,02,45,19.10
2015,07,03,02,46,19.10
2015,07,03,02,47,19.00
2015,07,03,02,48,19.00
2015,07,03,02,49,19.00
2015,07,03,02,50,18.90
2015,07,03,02,51,18.90
2015,07,03,02,52,18.90
2015,07,03,02,53,18.90
2015,07,03,02,54,18.90
2015,07,03,02,55,18.90
2015,07,03,02,56,18.80
2015,07,03,02,57,18.80
2015,07,03,02,58,18.80
2015,07,03,02,59,18.80
2015,07,03,03,00,18.80
2015,07,03,03,01,18.70
2015,07,03,03,02,18.70
2015,07,03,03,03,18.70
2015,07,03,03,04,18.60
2015,07,03,03,05,18.60
2015,07,03,03,06,18.60
2015,07,03,03,07,18.60
2015,07,03,03,08,18.60
2015,07,03,03,09,18.60
2015,07,03,03,10,18.50
2015,07,03,03,11,18.50
2015,07,03,03,12,18.50
2015,07,03,03,13,18.50
2015,07,03,03,14,18.50
2015,07,03,03,15,18.50
2015,07,03,03,16,18.50
2015,07,03,03,17,18.40
2015,07,03,03,18,18.40
2015,07,03,03,19,18.40
2015,07,03,03,20,18.40
2015,07,03,03,21,18.40
2015,07,03,03,22,18.40
2015,07,03,03,23,18.40
2015,07,03,03,24,18.40
2015,07,03,03,25,18.40
2015,07,03,03,26,18.40
2015,07,03,03,27,18.40
2015,07,03,03,28,18.40
2015,07,03,03,29,18.40
2015,07,03,03,30,18.40
2015,07,03,03,31,18.40
2015,07,03,03,32,18.40
2015,07,03,03,33,18.40
2015,07,03,03,34,18.30
2015,07,03,03,35,18.30
2015,07,03,03,36,18.30
2015,07,03,03,37,18.30
2015,07,03,03,38,18.30
2015,07,03,03,39,18.30
2015,07,03,03,40,18.30
2015,07,03,03,41,18.30
2015,07,03,03,42,18.30
2015,07,03,03,43,18.30
2015,07,03,03,44,18.30
2015,07,03,03,45,18.20
2015,07,03,03,46,18.20
2015,07,03,03,47,18.20
2015,07,03,03,48,18.20
2015,07,03,03,49,18.10
2015,07,03,03,50,18.10
2015,07,03,03,51,18.10
2015,07,03,03,52,18.10
2015,07,03,03,53,18.10
2015,07,03,03,54,18.10
2015,07,03,03,55,18.10
2015,07,03,03,56,18.00
2015,07,03,03,57,18.00
2015,07,03,03,58,18.00
2015,07,03,03,59,18.00
2015,07,03,04,00,18.00
2015,07,03,04,01,18.00
2015,07,03,04,02,18.00
2015,07,03,04,03,18.00
2015,07,03,04,04,18.00
2015,07,03,04,05,18.00
2015,07,03,04,06,17.90
2015,07,03,04,07,17.90
2015,07,03,04,08,17.90
2015,07,03,04,09,17.90
2015,07,03,04,10,17.90
2015,07,03,04,11,17.80
2015,07,03,04,12,17.80
2015,07,03,04,13,17.80
2015,07,03,04,14,17.80
2015,07,03,04,15,17.80
2015,07,03,04,16,17.70
2015,07,03,04,17,17.70
2015,07,03,04,18,17.70
2015,07,03,04,19,17.70
2015,07,03,04,20,17.70
2015,07,03,04,21,17.70
2015,07,03,04,22,17.60
2015,07,03,04,23,17.60
2015,07,03,04,24,17.60
2015,07,03,04,25,17.60
2015,07,03,04,26,17.60
2015,07,03,04,27,17.60
2015,07,03,04,28,17.60
2015,07,03,04,29,17.50
2015,07,03,04,30,17.50
2015,07,03,04,31,17.50
2015,07,03,04,32,17.50
2015,07,03,04,33,17.40
2015,07,03,04,34,17.40
2015,07,03,04,35,17.40
2015,07,03,04,36,17.40
2015,07,03,04,37,17.40
2015,07,03,04,38,17.40
2015,07,03,04,39,17.40
2015,07,03,04,40,17.30
2015,07,03,04,41,17.30
2015,07,03,04,42,17.30
2015,07,03,04,43,17.30
2015,07,03,04,44,17.30
2015,07,03,04,45,17.20
2015,07,03,04,46,17.20
2015,07,03,04,47,17.20
2015,07,03,04,48,17.20
2015,07,03,04,49,17.20
2015,07,03,04,50,17.20
2015,07,03,04,51,17.20
2015,07,03,04,52,17.20
2015,07,03,04,53,17.20
2015,07,03,04,54,17.20
2015,07,03,04,55,17.20
2015,07,03,04,56,17.10
2015,07,03,04,57,17.20
2015,07,03,04,58,17.20
2015,07,03,04,59,17.20
2015,07,03,05,00,17.20
2015,07,03,05,01,17.10
2015,07,03,05,02,17.10
2015,07,03,05,03,17.10
2015,07,03,05,04,17.10
2015,07,03,05,05,17.10
2015,07,03,05,06,17.10
2015,07,03,05,07,17.10
2015,07,03,05,08,17.10
2015,07,03,05,09,17.10
2015,07,03,05,10,17.10
2015,07,03,05,11,17.10
2015,07,03,05,12,17.10
2015,07,03,05,13,17.10
2015,07,03,05,14,17.10
2015,07,03,05,15,17.10
2015,07,03,05,16,17.10
2015,07,03,05,17,17.10
2015,07,03,05,18,17.10
2015,07,03,05,19,17.10
2015,07,03,05,20,17.10
2015,07,03,05,21,17.10
2015,07,03,05,22,17.10
2015,07,03,05,23,17.10
2015,07,03,05,24,17.10
2015,07,03,05,25,17.10
2015,07,03,05,26,17.10
2015,07,03,05,27,17.10
2015,07,03,05,28,17.10
2015,07,03,05,29,17.10
2015,07,03,05,30,17.10
2015,07,03,05,31,17.10
2015,07,03,05,32,17.10
2015,07,03,05,33,17.10
2015,07,03,05,34,17.10
2015,07,03,05,35,17.10
2015,07,03,05,36,17.10
2015,07,03,05,37,17.00
2015,07,03,05,38,17.00
2015,07,03,05,39,17.00
2015,07,03,05,40,17.00
2015,07,03,05,41,16.90
2015,07,03,05,42,16.90
2015,07,03,05,43,16.90
2015,07,03,05,44,16.90
2015,07,03,05,45,16.90
2015,07,03,05,46,16.80
2015,07,03,05,47,16.80
2015,07,03,05,48,16.80
2015,07,03,05,49,16.80
2015,07,03,05,50,16.80
2015,07,03,05,51,16.80
2015,07,03,05,52,16.80
2015,07,03,05,53,16.80
2015,07,03,05,54,16.80
2015,07,03,05,55,16.70
2015,07,03,05,56,16.70
2015,07,03,05,57,16.70
2015,07,03,05,58,16.70
2015,07,03,05,59,16.70
2015,07,03,06,00,16.80
2015,07,03,06,01,16.80
2015,07,03,06,02,16.80
2015,07,03,06,03,16.80
2015,07,03,06,04,16.80
2015,07,03,06,05,16.80
2015,07,03,06,06,16.80
2015,07,03,06,07,16.80
2015,07,03,06,08,16.80
2015,07,03,06,09,16.80
2015,07,03,06,10,16.80
2015,07,03,06,11,16.80
2015,07,03,06,12,16.80
2015,07,03,06,13,16.80
2015,07,03,06,14,16.80
2015,07,03,06,15,16.80
2015,07,03,06,16,16.80
2015,07,03,06,17,16.80
2015,07,03,06,18,16.80
2015,07,03,06,19,16.90
2015,07,03,06,20,16.90
2015,07,03,06,21,16.90
2015,07,03,06,22,16.90
2015,07,03,06,23,16.90
2015,07,03,06,24,16.90
2015,07,03,06,25,16.90
2015,07,03,06,26,16.90
2015,07,03,06,27,17.00
2015,07,03,06,28,17.00
2015,07,03,06,29,17.00
2015,07,03,06,30,17.10
2015,07,03,06,31,17.10
2015,07,03,06,32,17.10
2015,07,03,06,33,17.10
2015,07,03,06,34,17.10
2015,07,03,06,35,17.20
2015,07,03,06,36,17.20
2015,07,03,06,37,17.20
2015,07,03,06,38,17.20
2015,07,03,06,39,17.20
2015,07,03,06,40,17.20
2015,07,03,06,41,17.20
2015,07,03,06,42,17.20
2015,07,03,06,43,17.20
2015,07,03,06,44,17.20
2015,07,03,06,45,17.20
2015,07,03,06,46,17.30
2015,07,03,06,47,17.30
2015,07,03,06,48,17.30
2015,07,03,06,49,17.40
2015,07,03,06,50,17.40
2015,07,03,06,51,17.40
2015,07,03,06,52,17.40
2015,07,03,06,53,17.50
2015,07,03,06,54,17.50
2015,07,03,06,55,17.50
2015,07,03,06,56,17.50
2015,07,03,06,57,17.60
2015,07,03,06,58,17.60
2015,07,03,06,59,17.60
2015,07,03,07,00,17.60
2015,07,03,07,01,17.60
2015,07,03,07,02,17.60
2015,07,03,07,03,17.70
2015,07,03,07,04,17.70
2015,07,03,07,05,17.70
2015,07,03,07,06,17.80
2015,07,03,07,07,17.80
2015,07,03,07,08,17.80
2015,07,03,07,09,17.80
2015,07,03,07,10,17.90
2015,07,03,07,11,17.90
2015,07,03,07,12,17.90
2015,07,03,07,13,17.90
2015,07,03,07,14,17.90
2015,07,03,07,15,18.00
2015,07,03,07,16,18.00
2015,07,03,07,17,18.00
2015,07,03,07,18,18.00
2015,07,03,07,19,18.00
2015,07,03,07,20,18.10
2015,07,03,07,21,18.10
2015,07,03,07,22,18.10
2015,07,03,07,23,18.20
2015,07,03,07,24,18.20
2015,07,03,07,25,18.30
2015,07,03,07,26,18.30
2015,07,03,07,27,18.30
2015,07,03,07,28,18.40
2015,07,03,07,29,18.40
2015,07,03,07,30,18.50
2015,07,03,07,31,18.60
2015,07,03,07,32,18.60
2015,07,03,07,33,18.60
2015,07,03,07,34,18.70
2015,07,03,07,35,18.70
2015,07,03,07,36,18.80
2015,07,03,07,37,18.80
2015,07,03,07,38,18.80
2015,07,03,07,39,18.90
2015,07,03,07,40,18.90
2015,07,03,07,41,19.00
2015,07,03,07,42,19.00
2015,07,03,07,43,19.10
2015,07,03,07,44,19.10
2015,07,03,07,45,19.20
2015,07,03,07,46,19.20
2015,07,03,07,47,19.30
2015,07,03,07,48,19.30
2015,07,03,07,49,19.40
2015,07,03,07,50,19.40
2015,07,03,07,51,19.40
2015,07,03,07,52,19.50
2015,07,03,07,53,19.50
2015,07,03,07,54,19.60
2015,07,03,07,55,19.60
2015,07,03,07,56,19.70
2015,07,03,07,57,19.70
2015,07,03,07,58,19.70
2015,07,03,07,59,19.80
2015,07,03,08,00,19.90
2015,07,03,08,01,19.90
2015,07,03,08,02,20.00
2015,07,03,08,03,20.00
2015,07,03,08,04,20.10
2015,07,03,08,05,20.20
2015,07,03,08,06,20.20
2015,07,03,08,07,20.30
2015,07,03,08,08,20.30
2015,07,03,08,09,20.40
2015,07,03,08,10,20.40
2015,07,03,08,11,20.50
2015,07,03,08,12,20.50
2015,07,03,08,13,20.60
2015,07,03,08,14,20.60
2015,07,03,08,15,20.70
2015,07,03,08,16,20.70
2015,07,03,08,17,20.80
2015,07,03,08,18,20.90
2015,07,03,08,19,21.10
2015,07,03,08,20,21.20
2015,07,03,08,21,21.30
2015,07,03,08,22,21.40
2015,07,03,08,23,21.60
2015,07,03,08,24,21.80
2015,07,03,08,25,22.00
2015,07,03,08,26,22.20
2015,07,03,08,27,22.30
2015,07,03,08,28,22.50
2015,07,03,08,29,22.60
2015,07,03,08,30,22.80
2015,07,03,08,31,22.90
2015,07,03,08,32,23.00
2015,07,03,08,33,23.10
2015,07,03,08,34,23.20
2015,07,03,08,35,23.20
2015,07,03,08,36,23.30
2015,07,03,08,37,23.30
2015,07,03,08,38,23.30
2015,07,03,08,39,23.40
2015,07,03,08,40,23.40
2015,07,03,08,41,23.50
2015,07,03,08,42,23.60
2015,07,03,08,43,23.60
2015,07,03,08,44,23.70
2015,07,03,08,45,23.80
2015,07,03,08,46,23.80
2015,07,03,08,47,23.90
2015,07,03,08,48,24.00
2015,07,03,08,49,24.10
2015,07,03,08,50,24.20
2015,07,03,08,51,24.20
2015,07,03,08,52,24.20
2015,07,03,08,53,24.20
2015,07,03,08,54,24.20
2015,07,03,08,55,24.20
2015,07,03,08,56,24.10
2015,07,03,08,57,24.10
2015,07,03,08,58,24.10
2015,07,03,08,59,24.10
2015,07,03,09,00,24.10
2015,07,03,09,01,24.10
2015,07,03,09,02,24.20
2015,07,03,09,03,24.20
2015,07,03,09,04,24.20
2015,07,03,09,05,24.30
2015,07,03,09,06,24.30
2015,07,03,09,07,24.30
2015,07,03,09,08,24.40
2015,07,03,09,09,24.50
2015,07,03,09,10,24.60
2015,07,03,09,11,24.60
2015,07,03,09,12,24.60
2015,07,03,09,13,24.70
2015,07,03,09,14,24.70
2015,07,03,09,15,24.70
2015,07,03,09,16,24.70
2015,07,03,09,17,24.70
2015,07,03,09,18,24.80
2015,07,03,09,19,24.80
2015,07,03,09,20,24.80
2015,07,03,09,21,24.80
2015,07,03,09,22,24.90
2015,07,03,09,23,24.90
2015,07,03,09,24,25.00
2015,07,03,09,25,25.00
2015,07,03,09,26,25.10
2015,07,03,09,27,25.20
2015,07,03,09,28,25.20
2015,07,03,09,29,25.30
2015,07,03,09,30,25.30
2015,07,03,09,31,25.30
2015,07,03,09,32,25.40
2015,07,03,09,33,25.40
2015,07,03,09,34,25.40
2015,07,03,09,35,25.40
2015,07,03,09,36,25.40
2015,07,03,09,37,25.40
2015,07,03,09,38,25.40
2015,07,03,09,39,25.40
2015,07,03,09,40,25.40
2015,07,03,09,41,25.40
2015,07,03,09,42,25.40
2015,07,03,09,43,25.40
2015,07,03,09,44,25.40
2015,07,03,09,45,25.40
2015,07,03,09,46,25.40
2015,07,03,09,47,25.40
2015,07,03,09,48,25.50
2015,07,03,09,49,25.60
2015,07,03,09,50,25.60
2015,07,03,09,51,25.60
2015,07,03,09,52,25.70
2015,07,03,09,53,25.70
2015,07,03,09,54,25.80
2015,07,03,09,55,25.80
2015,07,03,09,56,25.80
2015,07,03,09,57,25.90
2015,07,03,09,58,25.90
2015,07,03,09,59,25.90
2015,07,03,10,00,25.90
2015,07,03,10,01,26.00
2015,07,03,10,02,26.00
2015,07,03,10,03,26.10
2015,07,03,10,04,26.20
2015,07,03,10,05,26.30
2015,07,03,10,06,26.40
2015,07,03,10,07,26.50
2015,07,03,10,08,26.50
2015,07,03,10,09,26.60
2015,07,03,10,10,26.60
2015,07,03,10,11,26.60
2015,07,03,10,12,26.60
2015,07,03,10,13,26.60
2015,07,03,10,14,26.60
2015,07,03,10,15,26.60
2015,07,03,10,16,26.60
2015,07,03,10,17,26.70
2015,07,03,10,18,26.70
2015,07,03,10,19,26.70
2015,07,03,10,20,26.70
2015,07,03,10,21,26.70
2015,07,03,10,22,26.70
2015,07,03,10,23,26.80
2015,07,03,10,24,26.80
2015,07,03,10,25,26.90
2015,07,03,10,26,26.90
2015,07,03,10,27,26.90
2015,07,03,10,28,26.90
2015,07,03,10,29,26.90
2015,07,03,10,30,26.90
2015,07,03,10,31,26.90
2015,07,03,10,32,26.90
2015,07,03,10,33,26.90
2015,07,03,10,34,26.90
2015,07,03,10,35,26.90
2015,07,03,10,36,26.90
2015,07,03,10,37,27.00
2015,07,03,10,38,27.00
2015,07,03,10,39,27.00
2015,07,03,10,40,26.90
2015,07,03,10,41,26.90
2015,07,03,10,42,26.90
2015,07,03,10,43,26.90
2015,07,03,10,44,27.00
2015,07,03,10,45,27.00
2015,07,03,10,46,27.00
2015,07,03,10,47,27.00
2015,07,03,10,48,27.10
2015,07,03,10,49,27.10
2015,07,03,10,50,27.10
2015,07,03,10,51,27.20
2015,07,03,10,52,27.20
2015,07,03,10,53,27.20
2015,07,03,10,54,27.20
2015,07,03,10,55,27.20
2015,07,03,10,56,27.20
2015,07,03,10,57,27.20
2015,07,03,10,58,27.20
2015,07,03,10,59,27.20
2015,07,03,11,00,27.20
2015,07,03,11,01,27.20
2015,07,03,11,02,27.20
2015,07,03,11,03,27.10
2015,07,03,11,04,27.10
2015,07,03,11,05,27.10
2015,07,03,11,06,27.00
2015,07,03,11,07,27.00
2015,07,03,11,08,27.10
2015,07,03,11,09,27.10
2015,07,03,11,10,27.20
2015,07,03,11,11,27.20
2015,07,03,11,12,27.20
2015,07,03,11,13,27.20
2015,07,03,11,14,27.30
2015,07,03,11,15,27.30
2015,07,03,11,16,27.40
2015,07,03,11,17,27.40
2015,07,03,11,18,27.50
2015,07,03,11,19,27.50
2015,07,03,11,20,27.60
2015,07,03,11,21,27.60
2015,07,03,11,22,27.70
2015,07,03,11,23,27.70
2015,07,03,11,24,27.70
2015,07,03,11,25,27.70
2015,07,03,11,26,27.70
2015,07,03,11,27,27.70
2015,07,03,11,28,27.70
2015,07,03,11,29,27.60
2015,07,03,11,30,27.60
2015,07,03,11,31,27.60
2015,07,03,11,32,27.50
2015,07,03,11,33,27.50
2015,07,03,11,34,27.40
2015,07,03,11,35,27.40
2015,07,03,11,36,27.40
2015,07,03,11,37,27.40
2015,07,03,11,38,27.40
2015,07,03,11,39,27.40
2015,07,03,11,40,27.40
2015,07,03,11,41,27.40
2015,07,03,11,42,27.40
2015,07,03,11,43,27.50
2015,07,03,11,44,27.50
2015,07,03,11,45,27.50
2015,07,03,11,46,27.50
2015,07,03,11,47,27.50
2015,07,03,11,48,27.40
2015,07,03,11,49,27.40
2015,07,03,11,50,27.30
2015,07,03,11,51,27.30
2015,07,03,11,52,27.30
2015,07,03,11,53,27.30
2015,07,03,11,54,27.40
2015,07,03,11,55,27.40
2015,07,03,11,56,27.40
2015,07,03,11,57,27.40
2015,07,03,11,58,27.40
2015,07,03,11,59,27.40
2015,07,03,12,00,27.50
2015,07,03,12,01,27.50
2015,07,03,12,02,27.60
2015,07,03,12,03,27.60
2015,07,03,12,04,27.70
2015,07,03,12,05,27.70
2015,07,03,12,06,27.70
2015,07,03,12,07,27.80
2015,07,03,12,08,27.80
2015,07,03,12,09,27.90
2015,07,03,12,10,27.90
2015,07,03,12,11,27.90
2015,07,03,12,12,28.00
2015,07,03,12,13,28.10
2015,07,03,12,14,28.10
2015,07,03,12,15,28.10
2015,07,03,12,16,28.10
2015,07,03,12,17,28.10
2015,07,03,12,18,28.10
2015,07,03,12,19,28.10
2015,07,03,12,20,28.10
2015,07,03,12,21,28.20
2015,07,03,12,22,28.20
2015,07,03,12,23,28.20
2015,07,03,12,24,28.10
2015,07,03,12,25,28.10
2015,07,03,12,26,28.20
2015,07,03,12,27,28.20
2015,07,03,12,28,28.30
2015,07,03,12,29,28.40
2015,07,03,12,30,28.50
2015,07,03,12,31,28.50
2015,07,03,12,32,28.50
2015,07,03,12,33,28.40
2015,07,03,12,34,28.40
2015,07,03,12,35,28.40
2015,07,03,12,36,28.50
2015,07,03,12,37,28.50
2015,07,03,12,38,28.60
2015,07,03,12,39,28.60
2015,07,03,12,40,28.70
2015,07,03,12,41,28.70
2015,07,03,12,42,28.60
2015,07,03,12,43,28.50
2015,07,03,12,44,28.50
2015,07,03,12,45,28.40
2015,07,03,12,46,28.40
2015,07,03,12,47,28.40
2015,07,03,12,48,28.50
2015,07,03,12,49,28.50
2015,07,03,12,50,28.50
2015,07,03,12,51,28.60
2015,07,03,12,52,28.70
2015,07,03,12,53,28.70
2015,07,03,12,54,28.80
2015,07,03,12,55,28.90
2015,07,03,12,56,28.90
2015,07,03,12,57,29.00
2015,07,03,12,58,29.00
2015,07,03,12,59,29.10
2015,07,03,13,00,29.10
2015,07,03,13,01,29.20
2015,07,03,13,02,29.20
2015,07,03,13,03,29.30
2015,07,03,13,04,29.30
2015,07,03,13,05,29.30
2015,07,03,13,06,29.40
2015,07,03,13,07,29.50
2015,07,03,13,08,29.50
2015,07,03,13,09,29.60
2015,07,03,13,10,29.60
2015,07,03,13,11,29.70
2015,07,03,13,12,29.70
2015,07,03,13,13,29.70
2015,07,03,13,14,29.80
2015,07,03,13,15,29.80
2015,07,03,13,16,29.90
2015,07,03,13,17,29.90
2015,07,03,13,18,29.90
2015,07,03,13,19,30.00
2015,07,03,13,20,30.00
2015,07,03,13,21,30.00
2015,07,03,13,22,30.00
2015,07,03,13,23,30.00
2015,07,03,13,24,30.10
2015,07,03,13,25,30.10
2015,07,03,13,26,30.10
2015,07,03,13,27,30.10
2015,07,03,13,28,30.10
2015,07,03,13,29,30.10
2015,07,03,13,30,30.10
2015,07,03,13,31,30.10
2015,07,03,13,32,30.20
2015,07,03,13,33,30.20
2015,07,03,13,34,30.30
2015,07,03,13,35,30.30
2015,07,03,13,36,30.30
2015,07,03,13,37,30.30
2015,07,03,13,38,30.10
2015,07,03,13,39,30.10
2015,07,03,13,40,30.00
2015,07,03,13,41,30.00
2015,07,03,13,42,29.90
2015,07,03,13,43,29.90
2015,07,03,13,44,29.90
2015,07,03,13,45,29.90
2015,07,03,13,46,29.80
2015,07,03,13,47,29.80
2015,07,03,13,48,29.80
2015,07,03,13,49,29.80
2015,07,03,13,50,29.80
2015,07,03,13,51,29.80
2015,07,03,13,52,29.80
2015,07,03,13,53,29.80
2015,07,03,13,54,29.80
2015,07,03,13,55,29.80
2015,07,03,13,56,29.80
2015,07,03,13,57,29.90
2015,07,03,13,58,29.90
2015,07,03,13,59,30.00
2015,07,03,14,00,30.10
2015,07,03,14,01,30.10
2015,07,03,14,02,30.20
2015,07,03,14,03,30.30
2015,07,03,14,04,30.30
2015,07,03,14,05,30.40
2015,07,03,14,06,30.50
2015,07,03,14,07,30.60
2015,07,03,14,08,30.60
2015,07,03,14,09,30.70
2015,07,03,14,10,30.70
2015,07,03,14,11,30.80
2015,07,03,14,12,30.80
2015,07,03,14,13,30.80
2015,07,03,14,14,30.90
2015,07,03,14,15,31.00
2015,07,03,14,16,31.00
2015,07,03,14,17,31.00
2015,07,03,14,18,31.10
2015,07,03,14,19,31.10
2015,07,03,14,20,31.10
2015,07,03,14,21,31.10
2015,07,03,14,22,31.10
2015,07,03,14,23,31.10
2015,07,03,14,24,31.10
2015,07,03,14,25,31.00
2015,07,03,14,26,31.00
2015,07,03,14,27,30.90
2015,07,03,14,28,30.80
2015,07,03,14,29,30.70
2015,07,03,14,30,30.50
2015,07,03,14,31,30.30
2015,07,03,14,32,30.30
2015,07,03,14,33,30.20
2015,07,03,14,34,30.10
2015,07,03,14,35,30.10
2015,07,03,14,36,30.10
2015,07,03,14,37,30.10
2015,07,03,14,38,30.10
2015,07,03,14,39,30.20
2015,07,03,14,40,30.20
2015,07,03,14,41,30.30
2015,07,03,14,42,30.40
2015,07,03,14,43,30.50
2015,07,03,14,44,30.50
2015,07,03,14,45,30.60
2015,07,03,14,46,30.60
2015,07,03,14,47,30.60
2015,07,03,14,48,30.70
2015,07,03,14,49,30.80
2015,07,03,14,50,30.80
2015,07,03,14,51,30.90
2015,07,03,14,52,30.90
2015,07,03,14,53,30.90
2015,07,03,14,54,30.90
2015,07,03,14,55,30.90
2015,07,03,14,56,30.90
2015,07,03,14,57,30.90
2015,07,03,14,58,30.90
2015,07,03,14,59,30.90
2015,07,03,15,00,30.90
2015,07,03,15,01,30.90
2015,07,03,15,02,30.90
2015,07,03,15,03,31.00
2015,07,03,15,04,31.00
2015,07,03,15,05,31.00
2015,07,03,15,06,31.10
2015,07,03,15,07,31.10
2015,07,03,15,08,31.10
2015,07,03,15,09,31.10
2015,07,03,15,10,31.00
2015,07,03,15,11,30.90
2015,07,03,15,12,30.80
2015,07,03,15,13,30.80
2015,07,03,15,14,30.80
2015,07,03,15,15,30.80
2015,07,03,15,16,30.80
2015,07,03,15,17,30.80
2015,07,03,15,18,30.80
2015,07,03,15,19,30.80
2015,07,03,15,20,30.80
2015,07,03,15,21,30.80
2015,07,03,15,22,30.80
2015,07,03,15,23,30.70
2015,07,03,15,24,30.60
2015,07,03,15,25,30.60
2015,07,03,15,26,30.60
2015,07,03,15,27,30.70
2015,07,03,15,28,30.80
2015,07,03,15,29,30.80
2015,07,03,15,30,30.90
2015,07,03,15,31,30.90
2015,07,03,15,32,30.90
2015,07,03,15,33,30.90
2015,07,03,15,34,30.80
2015,07,03,15,35,30.80
2015,07,03,15,36,30.70
2015,07,03,15,37,30.60
2015,07,03,15,38,30.60
2015,07,03,15,39,30.50
2015,07,03,15,40,30.40
2015,07,03,15,41,30.40
2015,07,03,15,42,30.40
2015,07,03,15,43,30.40
2015,07,03,15,44,30.50
2015,07,03,15,45,30.60
2015,07,03,15,46,30.60
2015,07,03,15,47,30.60
2015,07,03,15,48,30.60
2015,07,03,15,49,30.60
2015,07,03,15,50,30.50
2015,07,03,15,51,30.50
2015,07,03,15,52,30.40
2015,07,03,15,53,30.40
2015,07,03,15,54,30.40
2015,07,03,15,55,30.40
2015,07,03,15,56,30.50
2015,07,03,15,57,30.50
2015,07,03,15,58,30.60
2015,07,03,15,59,30.60
2015,07,03,16,00,30.70
2015,07,03,16,01,30.80
2015,07,03,16,02,30.80
2015,07,03,16,03,30.80
2015,07,03,16,04,30.80
2015,07,03,16,05,30.80
2015,07,03,16,06,30.80
2015,07,03,16,07,30.90
2015,07,03,16,08,31.00
2015,07,03,16,09,31.10
2015,07,03,16,10,31.20
2015,07,03,16,11,31.30
2015,07,03,16,12,31.30
2015,07,03,16,13,31.40
2015,07,03,16,14,31.40
2015,07,03,16,15,31.50
2015,07,03,16,16,31.50
2015,07,03,16,17,31.50
2015,07,03,16,18,31.50
2015,07,03,16,19,31.50
2015,07,03,16,20,31.50
2015,07,03,16,21,31.60
2015,07,03,16,22,31.60
2015,07,03,16,23,31.60
2015,07,03,16,24,31.70
2015,07,03,16,25,31.70
2015,07,03,16,26,31.70
2015,07,03,16,27,31.70
2015,07,03,16,28,31.60
2015,07,03,16,29,31.50
2015,07,03,16,30,31.50
2015,07,03,16,31,31.40
2015,07,03,16,32,31.30
2015,07,03,16,33,31.30
2015,07,03,16,34,31.30
2015,07,03,16,35,31.30
2015,07,03,16,36,31.20
2015,07,03,16,37,31.20
2015,07,03,16,38,31.10
2015,07,03,16,39,31.10
2015,07,03,16,40,31.10
2015,07,03,16,41,31.10
2015,07,03,16,42,31.10
2015,07,03,16,43,31.20
2015,07,03,16,44,31.20
2015,07,03,16,45,31.30
2015,07,03,16,46,31.30
2015,07,03,16,47,31.20
2015,07,03,16,48,31.20
2015,07,03,16,49,31.20
2015,07,03,16,50,31.20
2015,07,03,16,51,31.20
2015,07,03,16,52,31.30
2015,07,03,16,53,31.30
2015,07,03,16,54,31.30
2015,07,03,16,55,31.30
2015,07,03,16,56,31.40
2015,07,03,16,57,31.40
2015,07,03,16,58,31.40
2015,07,03,16,59,31.40
2015,07,03,17,00,31.40
2015,07,03,17,01,31.40
2015,07,03,17,02,31.40
2015,07,03,17,03,31.30
2015,07,03,17,04,31.30
2015,07,03,17,05,31.30
2015,07,03,17,06,31.30
2015,07,03,17,07,31.30
2015,07,03,17,08,31.20
2015,07,03,17,09,31.20
2015,07,03,17,10,31.20
2015,07,03,17,11,31.20
2015,07,03,17,12,31.20
2015,07,03,17,13,31.20
2015,07,03,17,14,31.20
2015,07,03,17,15,31.20
2015,07,03,17,16,31.20
2015,07,03,17,17,31.20
2015,07,03,17,18,31.20
2015,07,03,17,19,31.20